Flag for Argentina Weather past 2 weeks in Formosa, Formosa, Argentina

Now
88 °F

Partly sunny.


Feels Like: 93 °F
Forecast: 66 / 90 °F
Wind: 6 mph from East

Location: Formosa Aerodrome

Current Time: Jan 31, 2015 at 1:59:09 PM

Latest Report: Jan 31, 2015 at 1:00 PM


Visibility: N/A

Pressure: 29.95 "Hg

Humidity: 55%

Dew point: 70 °F

Location of FormosaLocation

Historic Weather in Formosa — Graph

°F

Formosa temperature yesterday

Maximum temperature yesterday: 86 °F (at 2:00 PM)
Minimum temperature yesterday: 70 °F (at 6:00 AM)
Average temperature yesterday: 77 °F

Past Weeks' High & Low Weather Summary

 TemperatureHumidityPressure
High97 °F (Jan 19, 2:00 PM)100% (Jan 18, 8:00 AM)30.04 "Hg (Jan 18, 8:00 AM)
Low64 °F (Jan 31, 6:00 AM)44% (Jan 19, 6:00 PM)29.62 "Hg (Jan 28, 5:00 PM)
Average81 °F78%29.87 "Hg
* Reported Jan 16 12:00 Noon — Jan 31 12:00 Noon, Formosa, Weather by CustomWeather, © 2014

Note: Actual official high and low records may vary slightly from our data, if they occured in-between our weather recording intervals... More about our weather records

Advertising

Formosa weather history for previous 24 hours

 ConditionsComfort  
Time TempWeatherWind HumidityBarometerVisibility
12:00 PM
Jan 31
86 °FScattered clouds.2 mph62%29.98 "HgN/A
11:00 AM84 °FPassing clouds.5 mph66%29.98 "HgN/A
10:00 AM81 °FSunny.3 mph70%29.98 "Hg10 mi
9:00 AM75 °FSunny.6 mph83%29.98 "Hg10 mi
8:00 AM72 °FSunny.5 mph88%29.98 "Hg10 mi
7:00 AM66 °FSunny.3 mph94%29.95 "Hg10 mi
6:00 AM64 °FSunny.3 mph100%29.92 "Hg10 mi
5:00 AM66 °FClear.5 mph94%29.92 "Hg10 mi
4:00 AM66 °FClear.3 mph94%29.92 "Hg10 mi
3:00 AM66 °FClear.5 mph94%29.95 "Hg10 mi
2:00 AM66 °FClear.6 mph94%29.95 "Hg10 mi
1:00 AM68 °FClear.5 mph94%29.98 "Hg10 mi
12:00 AM70 °FClear.3 mph88%29.98 "Hg10 mi
11:00 PM
Jan 30
72 °FClear.6 mph78%29.98 "Hg10 mi
10:00 PM72 °FClear.6 mph78%29.95 "Hg10 mi
9:00 PM73 °FClear.7 mph74%29.92 "Hg10 mi
8:00 PM77 °FClear.7 mph61%29.92 "Hg10 mi
7:00 PM81 °FClear.12 mph51%29.92 "Hg10 mi
6:00 PM84 °FSunny.16 mph45%29.92 "Hg10 mi
5:00 PM84 °FPassing clouds.9 mph51%29.92 "HgN/A
4:00 PM84 °FScattered clouds.15 mph55%29.95 "HgN/A
3:00 PM86 °FScattered clouds.13 mph52%29.98 "HgN/A
2:00 PM86 °FPassing clouds.13 mph52%29.98 "HgN/A
1:00 PM84 °FSunny.20 mph55%29.98 "Hg10 mi
Weather by CustomWeather, © 2014

See weather overviewHow to use our weather pages